Weather in Rzhanoye

Russia / Oryol Oblast     52°54′33″N   36°36′55″E
temp.,
°C
wind,
m/s
gust,
m/s
humid.,
%
clouds,
%
prec.,
mm/h
press.,
hPa
HPBL,
m
28 january, thu
thu2800:00−2nne4697100 0.8 1007196
03:00+1ese36100100 3.1 1005176
06:00+1se71298100 1.9 1003383
09:00+1se4996100 2.1 1003378
12:00+1se48100100 0.5 1002216
15:00+1se611100100 1.1 1001329
18:00+1sse61197100 0.6 1002568
21:00+1sse61299100 0.7 1001399
29 january, fri
fri2900:00+1sse61198100 0.1 1000346
03:000s51297100 0.9 1000597
06:00−1sse5129391 0.1 998566
09:00−2sse8148986 0.1 997918
12:00−2s9149098 0.2 9961124
15:00−1s8139799 0.9 995868
18:00−2ssw71289100 0.5 995934
21:00−3sw71293100 1.4 996839
30 january, sat
sat3000:00−3ssw7119297 0.3 996669
03:00−4sw499599 0.6 996407
06:00−7sw369776 0.1 997152
09:00−7sw5119482 0.1 999394
12:00−5sw699194 0.0 1000562
15:00−4ssw589297 0.1 1001578
18:00−4s51193100 0.0 1000477
21:00−3sse81496100 1.0 999598
31 january, sun
sun3100:00−2sse71396100 2.1 995539
03:00+1s71599100 5.3 991603
06:00+1s81598100 3.9 988687
09:000s71298100 7.1 986500
12:000wsw4799100 1.7 985330
15:00−2wnw91495100 1.9 988754
18:00−4wnw91686100 0.4 995816
21:00−6w91689100 0.4 1001747
1 february, mon
mon100:00−6w71490100 0.0 1005724
03:00−7wsw71392100 0.1 1008514
06:00−10wsw4996100 0.0 1010239
09:00−10sw479797 0.1 1013188
12:00−7s349494 0.0 1013176
15:00−5se468997 0.0 1012250
18:00−5ese61195100 0.5 1010359
21:00−4ese91595100 2.8 1006665